sat.trackr.live / text

‹ back to catalog

ONEWEB-0190

NORAD 48796 · 2021-045AF

PAYLOAD ACTIVE UNKNOWN

§ Identity

Operator
Country
UK
Launch date
2021-05-28
Launch site
VOSTO
Launch vehicle
Mass (kg)
RCS (m²)

Purposes: comms

External: N2YO · Heavens-Above · Gunter

§ Orbital elements

Epoch: 2026-09-19T22:13:12.402336Z

Period
109.46 min
Inclination
87.8991°
Eccentricity
0.0002222
Mean motion
13.15548860 rev/d
Perigee alt
1,200.1 km
Apogee alt
1,203.5 km
Semi-major
7,579.9 km
B*
3.5104e-4
RAAN
240.3104°
Arg perigee
65.2713°
Mean anomaly
294.8649°
Rev number
25,682

§ Raw data

ONEWEB-01901 48796U 21045AF  26262.92583799  .00000145  00000+0  35104-3 0  99912 48796  87.8991 240.3104 0002222  65.2713 294.8649 13.15548860256820

JSON: /api/v1/satellites/48796 · /tle

For live sub-satellite position, see the globe view (requires WebGL).

§ Visibility from observer

Set your observer location to see the next 7 days of passes ≥ 10°. The values pass through the URL so the page stays shareable.

No JS? Fill the form by hand. The geolocation button needs JavaScript.